Zurück zum Katalog

TIANLIAN 1-01

AktivKommunikationGEO
NORAD 32779·PAYLOAD·🇨🇳 China

Gestartet Apr 25, 2008 von Xichang Satellite Launch Center

Loading…

TLE

AktuellSource: Space-Track

Epoche: Sep 14, 2026, 13:21 UTC

1 32779U 08019A   26257.55646618 -.00000089  00000-0  00000-0 0  9997
2 32779  10.3648  58.2871 0007208 225.3439 124.0784  0.97414277 16226

Verfolge TIANLIAN 1-01 in Echtzeit mit AllMySat

Download on the App Store